TURKSAT 3A

Last updated on Jan. 26, 2020, 4:40 a.m. UTC

1 33056U 08030B   20025.77991206  .00000139  00000-0  00000+0 0  9990
2 33056   0.0435  84.2523 0002994 245.0139 117.9927  1.00273048 42673
UTC
Height (km)
Latitude
Longitude
Inclination
Orbital Period
UTC large
Height (km)
Speed (km/s)
/
Latitude / Longitude
Inclination (degrees)
Orbital Period (minutes)
Azimuth
Elevation
Range (km)
Doppler Factor
iOS Compass Heading
iOS Angle

Next 30 passes for location: Hong Kong

Rise time Rise Azimuth (degrees) Set time Set Azimuth (degrees) Duration Max altitude (degrees)

No matching passes for this satellites